Вернуться в каталог

STARLINK-31741

АктивенСвязьVLEO
NORAD 59550·PAYLOAD·🇺🇸 United States

Запущен Apr 18, 2024 с Cape Canaveral Space Force Station

Loading…

Ближайшие Пролёты (ближайшие 24 часа)

TLE

СвежийSource: CelesTrak SupGP

Эпоха: Sep 15, 2026, 02:18 UTC

1 59550C 24074S   26258.09631944  .00029957  00000+0  10851-2 0  2586
2 59550  43.0015 353.5471 0001559 261.0622 155.1014 15.27560389    10

Отслеживайте STARLINK-31741 в реальном времени с AllMySat

Download on the App Store